STARLINK-32457, 61717

Orbit data source: Space-Track

STARLINK-32457, 61717 is a payload satellite owned by SpaceX/Seattle (US) in LEO that was launched on Wed, 30 Oct 2024 UTC via an FALCON 9 launch vehicle from the Air Force Eastern Test Range (AFETR). Payload-class satellites include a variety of spacecraft equipped with specific instruments for various scientific and technological missions. These include communications satellites like Starlink; space stations such as the ISS; scientific satellites like the Hubble; Earth observation satellites from companies like Planet Labs, Umbra, and HawkEye 360; GPS; miniature CubeSats for education and research; and military/defense satellites.

Loading next visibility...
Identifier
61717, 2024-196L
Orbit
LEO
Last TLE update
11 hours ago
Origin
Manufacturer
SpaceX/Seattle
Mission
Operational Commercial Communications
Bus & Motor
STARLINK V2M, Unknown motor
Mass
730 kg wet, ~700 kg dry
Launch date (UTC)
2024-10-30 (6 months ago)
Launch vehicle
FALCON 9
Launch site
Air Force Eastern Test Range (AFETR)
Object type
Payload
Rocket body
Debris
Shape & HBR
Box + 2 Pan, 29 m
Radar Cross Section
36.964 m², Large (>1 m²)

Expand to show TLE details & history

TLE from 11 hours ago
0 STARLINK-32457
1 61717U 24196L   25129.22486978  .00001192  00000-0  52341-4 0  9991
2 61717  53.1612  75.4051 0001319  83.3060 276.8091 15.30205870 30577
Epoch: 2025-05-09T05:23Z
Definitive object data (Epoch: 2025-05-09T05:23:48.748Z)
Latitude
-0.00004°
Longitude
127.16788°
Altitude
475.99 km
Speed
7.629 km/s
True Right ascension
05h 01m 37s
True Declination
0° 00' 00"
Sunlit
Object was in daylight at TLE epoch
Visualization TLE readout
Latitude
34.51053°
Longitude
155.81855°
Altitude
476.986 km
Speed
7.632 km/s
Apparent Right ascension
09h 34m 44s
Apparent Declination
-1° 32' 55"
Sunlit
Object is in daylight
Visualization observer readout
Local Sidereal Time
00:44:22
Azimuth
60.678° ENE
Elevation
-32.426°
Doppler factor
1
Orbital elements
Apogee altitude
476.358 km
Perigee altitude
474.55 km
Semi-major axis
6,853.591 km
Eccentricity
0.0001319
Inclination
53.1612°
RAAN
75.4051°
Arg. of periapsis
83.306°
True anomaly
276.79409°
Mean anomaly
276.8091°
Eccentric anomaly
276.8016°
Mean motion
3.8253 °/min
BSTAR
0.000052341
Orbital period
94.11 mins
Loading maneuver chart data...
Loading SW <> Apogee altitude chart data...
Loading historical data...
Loading historical data...
Loading historical data...
Loading historical data...
Loading historical data...
Loading historical data...
Loading historical data...

STARLINK-32457 Visibility forecast

Observer location: undefined°, undefined°

Span
Click to sort rows by Start time (UTC) header in descending order
Start Az.
Max El. time (UTC)
Max El. Az.
Max El.
End time (UTC)
End Az.
6 mins2025-05-09 22:48:52.945Z211.84° SW2025-05-09 22:51:52.945Z108.465° ESE39.149°2025-05-09 22:54:52.945Z57.857° ENE
4 mins2025-05-10 00:27:52.945Z294.35° NW2025-05-10 00:29:52.945Z339.389° N21.118°2025-05-10 00:31:52.945Z19.563° NNE
5 mins2025-05-10 05:24:52.945Z333.695° NNW2025-05-10 05:26:52.945Z56.767° ENE36.386°2025-05-10 05:29:52.945Z111.309° ESE
|